Вернуться в каталог

STARLINK-3354

АктивенСвязьVLEO
NORAD 51146·PAYLOAD·🇺🇸 United States

Запущен Jan 19, 2022 с Cape Canaveral Space Force Station

Loading…

Ближайшие Пролёты (ближайшие 24 часа)

TLE

СвежийSource: CelesTrak SupGP

Эпоха: Sep 15, 2026, 01:54 UTC

1 51146C 22005AU  26258.07965278  .00021534  00000+0  63604-3 0  2587
2 51146  53.1566 154.7277 0001201  84.4969 321.5711 15.34388804    17

Отслеживайте STARLINK-3354 в реальном времени с AllMySat

Download on the App Store